Weather in Milton

Canada     43°30′59″N   79°52′12″W
temp.,
°C
wind,
m/s
gust,
m/s
humid.,
%
clouds,
%
prec.,
mm/h
press.,
hPa
HPBL,
m
15 april, thu
thu1523:00+8wnw357191 0.0 1012536
02:00+6nw4582100 0.1 1011740
05:00+4wnw25787 0.5 1010499
08:00+3wnw467613 0.5 1011512
11:00+7wnw4550100 0.0 10091688
14:00+8wnw3545100 0.1 10081971
17:00+8wnw4548100 0.3 10071617
20:00+6wnw3662100 0.6 1007830
16 april, fri
fri1623:00+5wnw597294 0.0 1007675
02:00+5wnw41079100 0.0 1006889
05:00+4wnw5991100 0.3 1005654
08:00+3wnw51095100 2.9 1005612
11:00+4wnw4995100 0.3 1006566
14:00+5nw3693100 0.4 1007677
17:00+8nw467680 0.0 1007695
20:00+7nnw3679100 0.1 1009945
17 april, sat
sat1723:00+6e2389100 0.2 1011331
02:00+6nne1388100 0.6 1011364
05:00+5nne248486 0.3 1012409
08:00+4n238385 0.3 1013254
11:00+7nne237059 0.0 1013711
14:00+11e1251100 0.1 10121224
17:00+11n1253100 0.1 10111178
20:00+9nw1272100 0.6 1012705
18 april, sun
sun1823:00+7n357696 0.6 1013360
02:00+5nw258364 0.8 1013218
05:00+4wnw25855 0.0 1013180
08:00+5wnw267921 0.0 1014217
11:00+10nw3455100 0.0 10141495
14:00+10wnw345788 0.1 10131087
17:00+10nw4460100 0.2 10131113
20:00+9nnw356982 0.4 1014590
19 april, mon
mon1923:00+6nw247993 0.0 1014141
02:00+5w2381100 0.0 1014123
05:00+4wnw2583100 0.0 1014176
08:00+5w24760 0.0 1014225
11:00+10sw36526 0.0 10131215
14:00+12ssw4744100 0.1 10101846
17:00+13sw61054100 0.1 10091685
20:00+11wsw71463100 0.1 10081713